Flag Weather past 2 weeks in East London, South Africa

Now
73 °F

Sunny.


Feels Like: 77 °F
Forecast: 55 / 74 °F
Wind: 14 mph from South

Location: East London

Current Time: Nov 28, 2014 at 11:06:59 AM

Latest Report: Nov 28, 2014 at 10:00 AM


Visibility: 10 mi

Pressure: 29.98 "Hg

Humidity: 57%

Dew point: 57 °F

Location of East LondonLocation

Historic Weather in East London — Graph

°F

East London temperature yesterday

Maximum temperature yesterday: 75 °F (at 10:00 AM)
Minimum temperature yesterday: 63 °F (at 5:00 AM)
Average temperature yesterday: 70 °F

Past Weeks' High & Low Weather Summary

 TemperatureHumidityPressure
High79 °F (Nov 23, 11:00 AM)100% (Nov 23, 7:00 AM)30.36 "Hg (Nov 23, 7:00 AM)
Low52 °F (Nov 18, 5:00 AM)31% (Nov 15, 1:00 PM)29.74 "Hg (Nov 14, 7:00 PM)
Average67 °F72%30.03 "Hg
* Reported Nov 13 10:00 AM — Nov 28 10:00 AM, East London, Weather by CustomWeather, © 2014

Note: Actual official high and low records may vary slightly from our data, if they occured in-between our weather recording intervals... More about our weather records

Advertising

East London weather history for previous 24 hours

 ConditionsComfort  
Time TempWeatherWind HumidityBarometerVisibility
10:00 AM
Nov 28
73 °FSunny.14 mph57%29.98 "Hg10 mi
9:00 AM73 °FPassing clouds.17 mph53%29.98 "HgN/A
8:00 AM72 °FSunny.16 mph57%29.98 "Hg10 mi
7:00 AM68 °FSunny.12 mph64%29.95 "Hg10 mi
6:00 AM64 °FPassing clouds.6 mph73%29.95 "HgN/A
5:00 AM59 °FSunny.6 mph82%29.95 "Hg10 mi
8:00 PM
Nov 27
66 °FPassing clouds.5 mph88%29.89 "HgN/A
7:00 PM68 °FPassing clouds.5 mph83%29.86 "HgN/A
5:00 PM70 °FScattered clouds.2 mph83%29.80 "HgN/A
4:00 PM70 °FBroken clouds.7 mph83%29.80 "HgN/A
3:52 PM70 °FBroken clouds.7 mph83%29.80 "HgN/A
3:00 PM72 °FScattered clouds.12 mph73%29.77 "HgN/A
2:00 PM73 °FPassing clouds.14 mph61%29.74 "HgN/A
1:00 PM73 °FPassing clouds.15 mph65%29.77 "HgN/A
12:00 PM75 °FPassing clouds.16 mph61%29.80 "HgN/A
11:00 AM73 °FPassing clouds.15 mph65%29.80 "HgN/A
Weather by CustomWeather, © 2014

See weather overviewHow to use our weather pages